Wind_Speed
4 4 4 5 4 5 5 5 5 6 6 6 6 5 6 5 5 5 5 4 3 2 2 1 1 1 2 2 3 3 3 4 4 5 5 5 4 4 4 4 4 3 2 2 2 1 1 2 2
6 6 5 5 5 4 4 5 5 6 7 7 6 6 6 6 6 6 5 4 3 2 2 1 0 1 1 1 2 3 3 4 4 5 5 5 5 5 4 4 4 4 3 2 2 2 2 2 2
8 7 6 6 6 4 5 4 5 6 6 7 7 6 6 6 7 7 6 5 4 3 3 2 1 0 1 2 2 3 3 4 4 4 4 5 5 5 5 5 4 4 4 3 3 3 3 3 3
9 9 8 7 7 6 5 5 5 6 7 7 7 6 6 6 6 6 6 5 5 4 3 2 2 1 2 2 2 2 3 4 4 4 4 5 5 5 5 5 5 5 4 4 4 3 3 3 3
10 10 8 8 8 7 6 6 6 6 7 7 6 6 6 6 6 6 5 5 5 4 3 3 2 2 2 2 2 3 3 4 4 4 4 5 5 5 5 5 5 5 5 5 5 4 3 3 3
10 10 9 9 10 9 8 7 7 7 7 8 8 7 7 6 6 6 6 6 6 5 4 4 4 3 2 2 3 3 3 4 4 4 4 5 5 6 6 6 6 6 5 5 4 4 4 3 3
10 10 10 10 11 10 9 9 9 8 8 8 8 8 8 7 7 7 7 7 7 6 5 4 4 3 3 3 3 3 3 4 4 4 4 5 5 6 6 6 6 6 5 5 4 4 3 3 3
11 11 11 12 11 11 11 10 10 9 9 9 9 10 9 9 9 9 8 8 8 7 7 6 5 4 4 4 3 4 4 4 4 4 4 5 5 6 6 6 6 6 5 5 5 4 4 3 3
12 12 12 12 12 12 12 12 11 11 10 10 10 11 10 10 9 9 8 8 8 8 8 7 5 4 4 4 4 4 4 4 4 4 4 5 6 6 6 6 6 6 6 5 5 4 4 3 3
13 13 13 13 13 12 13 12 12 11 11 11 11 11 11 11 10 10 9 8 8 8 8 7 6 5 5 5 4 4 4 4 4 5 5 5 6 7 7 7 6 6 6 5 5 4 4 4 3
14 13 14 14 13 13 13 13 13 12 12 12 12 12 12 12 12 11 9 8 7 7 8 7 7 6 6 5 5 5 5 4 4 5 6 6 6 7 7 7 7 7 6 5 5 4 4 3 3
15 14 14 14 14 13 13 14 14 14 14 14 13 12 12 12 11 10 9 8 8 7 8 8 7 7 6 6 5 5 5 5 5 5 6 6 6 7 7 7 7 7 6 6 5 5 4 4 4
14 14 14 13 13 14 14 14 15 15 14 14 14 13 12 11 10 10 9 8 7 7 7 8 7 7 6 6 5 5 5 5 5 5 6 6 7 7 7 7 7 6 6 5 5 5 5 5 4
13 14 14 13 13 13 14 15 15 15 15 14 14 13 13 12 11 10 10 9 8 7 7 7 7 7 7 7 6 6 6 6 6 6 6 6 6 7 7 7 7 6 6 6 6 5 6 5 5
12 12 13 13 13 13 14 14 14 14 14 15 14 14 13 12 11 11 10 10 10 9 9 9 8 9 8 8 7 6 6 6 6 7 7 6 6 6 6 6 7 6 6 6 6 5 6 6 5
11 12 12 12 12 12 12 13 14 14 13 14 13 13 13 13 12 12 11 11 11 11 10 10 10 9 9 8 8 7 7 7 7 7 7 7 7 7 7 7 7 7 6 6 6 6 6 6 6
10 10 10 11 11 12 12 11 12 12 12 13 14 13 13 13 12 12 12 12 12 12 11 11 10 9 8 9 8 8 7 7 7 8 7 7 7 7 7 7 7 7 7 7 6 6 6 6 6
8 9 10 10 10 11 11 10 11 11 11 11 13 14 13 13 13 12 12 12 11 11 11 10 10 10 10 9 8 8 8 7 8 8 7 7 7 7 7 7 7 7 7 7 6 6 6 6 7
9 9 10 10 9 10 10 10 11 10 10 11 12 12 13 13 13 13 12 12 11 10 10 10 10 10 10 10 9 8 8 8 8 8 8 8 8 7 7 7 7 7 7 7 7 7 7 7 7
9 10 10 10 10 10 11 10 10 11 11 11 11 12 12 12 13 13 12 12 11 10 10 10 10 10 10 10 10 9 9 9 8 8 8 8 8 7 8 8 7 8 8 8 8 8 8 8 8
10 11 10 9 10 10 11 10 10 11 11 11 12 12 13 13 13 13 12 12 11 11 11 11 11 11 11 11 11 10 10 9 9 9 9 8 8 8 8 8 8 8 8 8 8 8 8 9 9
10 10 10 10 10 10 10 10 10 11 11 12 13 13 14 13 13 12 12 12 12 12 12 12 11 11 11 12 11 11 10 9 9 9 9 9 8 8 8 9 9 9 9 9 9 9 9 9 9
9 9 9 10 10 9 9 10 10 11 12 12 12 13 13 13 13 12 13 13 13 13 13 12 12 12 11 11 10 10 10 9 9 9 9 9 9 9 9 10 10 10 10 10 10 10 10 10 10
8 9 10 10 11 11 9 12 12 12 13 12 12 12 12 12 12 12 13 13 13 13 13 13 13 12 11 11 10 10 10 9 9 9 10 10 10 10 10 11 11 11 11 11 11 11 11 11 11
8 9 9 9 10 10 10 13 13 12 12 13 13 13 12 13 13 12 13 13 14 13 13 13 12 12 12 11 11 10 11 10 10 10 10 10 11 11 11 11 11 11 11 11 12 12 12 12 12
9 9 9 8 8 9 10 12 13 12 12 12 13 13 13 13 13 13 13 13 13 12 12 13 13 12 12 12 11 11 11 11 10 11 11 11 11 11 11 12 12 12 12 12 12 12 13 13 14
9 9 8 8 8 10 9 10 12 12 11 12 12 12 12 12 12 12 13 13 13 13 12 13 12 13 13 13 12 11 11 11 11 11 12 12 12 12 12 12 13 13 13 12 13 13 14 14 14
9 9 9 9 9 10 9 9 10 12 12 11 11 11 11 11 11 12 12 12 13 13 14 14 13 13 13 13 12 12 12 12 12 12 12 13 13 13 13 13 13 13 13 13 14 14 14 15 15
10 10 10 9 9 10 10 8 9 10 11 11 11 11 11 11 11 11 11 12 12 13 13 13 13 13 13 13 12 12 12 12 13 13 13 14 14 14 14 14 14 14 14 14 14 15 15 15 15
11 10 10 10 10 10 12 11 11 11 12 12 11 11 11 11 11 12 12 13 13 13 13 13 13 13 13 12 12 12 13 13 14 14 14 14 14 14 14 15 15 15 15 15 15 16 16 17 17
Wind_Direction
225 212 201 188 197 193 184 197 204 206 203 206 209 205 208 206 201 198 199 198 187 172 154 116 61 64 53 59 60 61 58 52 46 43 40 37 32 28 25 20 16 12 3 358 351 342 323 303 293
228 223 216 208 207 187 202 207 212 212 210 214 216 215 212 209 208 208 211 212 206 210 212 210 138 66 17 20 44 46 47 42 39 35 32 29 25 24 22 18 15 9 2 351 342 332 309 301 294
226 222 219 217 222 221 219 214 221 223 219 217 221 224 216 212 215 218 217 215 219 227 226 248 238 69 3 2 30 36 29 27 29 30 31 27 26 24 21 16 13 11 6 359 345 336 317 300 290
227 221 223 223 231 236 240 231 226 228 221 218 224 223 214 215 221 222 217 218 222 225 236 260 245 313 351 4 16 15 20 20 19 18 24 25 22 19 19 15 9 6 1 352 343 334 320 307 298
227 223 222 223 231 237 238 236 232 229 224 222 226 221 222 222 224 220 215 220 223 222 241 257 259 274 309 352 8 5 3 8 10 10 15 15 14 14 13 10 8 4 358 351 346 337 316 310 306
229 227 226 230 236 237 240 239 237 240 232 226 228 229 233 230 225 220 222 226 228 230 242 257 264 274 290 325 339 344 347 351 353 356 3 7 9 8 8 5 3 2 358 351 344 335 322 305 298
231 231 235 236 241 238 237 240 241 240 234 233 231 232 228 231 230 229 233 234 236 238 253 258 264 268 284 300 323 329 333 335 338 345 350 352 354 357 1 2 1 359 353 347 341 332 320 315 296
237 239 241 241 243 243 239 238 239 241 237 235 233 231 227 231 235 241 243 243 245 246 256 259 265 270 282 283 302 323 320 321 327 338 344 346 348 347 351 358 357 353 350 347 342 335 324 316 302
240 242 245 245 244 244 243 240 238 243 240 240 240 235 230 234 240 242 242 246 248 252 255 259 263 269 275 279 291 310 314 312 316 326 333 339 340 340 341 349 351 350 351 350 346 341 331 322 305
239 242 245 249 247 247 247 244 242 247 245 241 242 240 238 238 242 243 244 250 254 256 256 260 267 274 276 275 285 299 309 307 307 311 320 329 335 341 339 344 348 349 349 348 346 340 341 333 314
238 243 247 252 250 248 243 243 246 248 248 242 242 241 239 239 241 245 245 250 259 261 260 263 267 273 276 273 279 291 300 303 305 306 314 326 336 342 342 344 345 342 342 342 343 340 336 334 314
239 242 248 251 252 250 244 243 244 247 247 243 242 243 244 238 239 241 245 253 257 263 264 263 267 270 274 275 273 282 290 297 303 305 310 319 329 334 336 341 342 341 339 338 337 335 337 335 324
240 245 249 253 252 250 245 243 245 248 248 243 239 241 240 240 241 245 250 256 260 264 269 265 264 268 272 276 272 275 286 293 303 309 310 313 318 324 332 338 340 341 336 333 335 336 335 335 330
242 246 250 253 253 249 244 241 245 246 245 244 240 240 240 243 246 247 252 255 258 262 266 267 265 268 272 271 273 274 283 293 300 301 302 306 315 322 328 335 339 339 339 334 335 336 335 332 326
246 249 249 252 254 248 246 243 243 244 247 247 242 242 242 242 244 249 255 257 257 259 264 266 269 268 268 269 270 273 283 290 294 297 297 300 306 314 319 323 331 334 335 331 328 327 329 326 324
245 246 248 253 255 248 247 246 245 248 250 246 242 244 244 244 247 251 255 257 257 257 260 265 268 267 267 268 268 277 284 285 287 292 296 299 302 306 309 312 320 325 328 326 323 324 323 322 325
243 248 252 258 258 250 250 250 248 249 249 247 245 248 248 248 251 254 255 255 257 257 258 261 264 267 265 265 266 275 284 282 282 286 292 295 300 305 308 311 314 319 323 322 320 324 326 324 326
243 248 251 256 259 255 254 251 246 246 250 252 251 250 253 253 255 253 252 253 257 257 254 260 265 266 263 265 269 274 279 277 278 283 287 291 296 304 311 310 311 314 318 318 318 322 321 318 319
241 245 247 249 254 260 261 257 247 246 250 254 256 255 254 256 256 252 250 251 253 254 253 256 260 263 265 268 270 273 277 278 276 279 280 286 291 297 304 308 308 310 311 310 312 314 315 314 313
245 246 246 252 255 257 258 258 253 251 252 255 258 255 255 256 259 256 253 252 253 254 255 257 261 264 266 269 269 272 274 274 273 274 277 279 281 286 294 299 304 309 308 306 308 309 309 311 313
248 250 248 252 256 258 260 257 257 259 261 263 263 263 262 257 258 259 256 252 252 254 259 261 263 264 266 269 271 272 273 271 269 271 273 278 279 280 285 290 295 301 305 305 307 309 309 309 311
247 253 252 253 256 256 263 268 261 264 264 263 264 264 263 261 260 259 256 254 254 256 260 263 266 263 265 269 269 270 270 271 269 270 273 276 277 278 281 286 291 296 301 303 305 308 310 311 314
249 254 254 255 257 259 263 269 266 267 267 268 267 266 266 265 260 260 260 258 257 259 261 262 263 261 262 267 269 268 269 268 268 267 270 273 274 275 278 283 287 292 296 300 305 307 308 309 311
257 256 258 262 259 262 268 268 267 269 269 274 273 268 267 261 257 259 260 259 259 261 261 261 261 259 261 264 265 265 266 268 267 269 272 273 274 276 279 281 285 289 291 294 298 301 302 304 307
255 255 257 260 260 266 269 271 270 271 271 273 273 272 268 262 258 261 260 257 258 259 259 260 260 257 258 261 262 262 264 268 268 271 273 273 275 278 281 284 286 289 290 292 295 297 299 302 303
256 260 261 266 262 266 267 270 272 274 276 274 272 270 271 267 264 259 258 257 257 258 258 259 257 254 256 258 260 263 265 267 267 270 273 274 276 279 282 286 289 291 291 292 293 294 296 298 300
255 257 262 267 270 277 268 271 275 278 274 275 272 270 270 267 264 259 254 256 256 256 257 260 255 254 255 258 261 263 265 267 269 272 276 279 279 279 282 287 291 291 291 291 291 292 295 296 298
259 259 258 262 267 269 267 270 274 272 274 278 278 273 272 266 262 260 258 258 257 259 260 257 254 255 258 260 261 263 264 265 268 273 275 278 281 280 281 284 290 291 290 290 290 292 294 295 295
255 251 255 260 265 272 268 265 268 274 278 281 280 276 272 266 263 263 265 265 264 261 259 255 255 255 257 260 260 261 264 266 269 274 276 277 278 281 282 282 285 286 287 290 292 292 293 295 295
263 256 256 256 254 262 273 274 277 278 278 279 279 276 271 267 266 269 270 269 267 263 256 255 255 254 256 258 258 261 265 267 270 273 274 275 278 280 280 281 282 284 286 289 291 293 292 293 293
Height
5877 5877 5878 5879 5880 5880 5880 5881 5881 5883 5884 5885 5885 5886 5887 5888 5889 5892 5890 5889 5890 5890 5890 5891 5891 5891 5890 5890 5890 5889 5889 5888 5888 5887 5887 5886 5886 5885 5884 5884 5883 5882 5882 5882 5881 5881 5881 5881 5881
5876 5877 5878 5879 5879 5880 5881 5881 5881 5883 5884 5884 5885 5886 5886 5887 5888 5889 5889 5889 5890 5890 5890 5891 5891 5891 5891 5890 5890 5890 5889 5889 5888 5888 5887 5886 5886 5885 5885 5884 5883 5883 5882 5882 5881 5881 5881 5881 5881
5874 5875 5878 5879 5879 5880 5880 5880 5881 5882 5883 5884 5885 5886 5887 5887 5888 5888 5889 5889 5890 5890 5890 5891 5891 5891 5891 5890 5890 5890 5889 5889 5888 5888 5887 5887 5886 5885 5885 5884 5883 5883 5882 5882 5881 5881 5881 5881 5881
5872 5875 5877 5879 5879 5879 5879 5880 5881 5881 5882 5884 5885 5886 5886 5887 5887 5888 5888 5889 5890 5890 5890 5890 5890 5891 5891 5890 5890 5890 5890 5889 5889 5888 5887 5887 5886 5886 5885 5884 5883 5883 5882 5882 5881 5881 5880 5880 5880
5871 5874 5876 5877 5878 5878 5879 5879 5880 5881 5882 5883 5885 5885 5886 5887 5887 5887 5888 5889 5889 5890 5890 5890 5890 5890 5890 5890 5890 5890 5890 5889 5889 5888 5887 5887 5886 5886 5885 5884 5883 5883 5882 5881 5881 5880 5880 5880 5879
5871 5873 5875 5876 5876 5877 5878 5879 5879 5881 5882 5883 5884 5885 5885 5886 5887 5887 5888 5888 5889 5890 5890 5890 5890 5890 5890 5890 5890 5890 5890 5889 5889 5888 5888 5887 5886 5886 5885 5884 5883 5882 5882 5881 5880 5880 5879 5879 5879
5871 5872 5873 5874 5875 5875 5877 5877 5878 5879 5881 5882 5883 5884 5885 5885 5886 5887 5887 5888 5889 5889 5889 5890 5889 5890 5890 5890 5890 5890 5889 5889 5889 5888 5888 5887 5886 5886 5885 5884 5883 5882 5881 5880 5880 5879 5878 5878 5878
5869 5871 5871 5872 5873 5874 5875 5876 5877 5879 5880 5881 5882 5883 5884 5885 5886 5886 5887 5887 5888 5888 5889 5889 5889 5889 5889 5890 5890 5889 5889 5889 5889 5888 5888 5887 5886 5885 5885 5884 5883 5882 5881 5880 5879 5878 5878 5877 5877
5867 5870 5869 5870 5871 5873 5874 5875 5876 5877 5879 5880 5881 5882 5883 5884 5885 5885 5886 5887 5887 5888 5888 5888 5888 5889 5889 5889 5889 5889 5889 5889 5888 5888 5887 5887 5886 5885 5884 5883 5882 5881 5880 5879 5878 5878 5877 5877 5876
5865 5867 5868 5868 5870 5871 5872 5873 5875 5876 5877 5878 5880 5880 5882 5883 5883 5884 5885 5886 5886 5887 5887 5887 5888 5888 5888 5888 5888 5888 5888 5888 5888 5887 5887 5886 5886 5885 5884 5883 5882 5881 5880 5879 5878 5877 5877 5876 5876
5863 5864 5865 5866 5868 5869 5870 5872 5873 5874 5875 5877 5878 5879 5880 5881 5882 5883 5884 5885 5885 5886 5886 5886 5887 5887 5887 5888 5887 5888 5888 5887 5887 5887 5886 5886 5885 5884 5883 5882 5881 5880 5879 5879 5878 5877 5877 5876 5876
5861 5862 5863 5864 5866 5867 5868 5869 5871 5872 5873 5874 5876 5877 5878 5879 5881 5882 5882 5883 5884 5884 5885 5885 5885 5886 5886 5887 5887 5887 5887 5887 5886 5886 5886 5885 5885 5884 5883 5882 5881 5880 5879 5878 5878 5877 5876 5876 5875
5858 5860 5861 5862 5864 5865 5866 5868 5869 5870 5871 5872 5874 5875 5876 5878 5879 5880 5881 5882 5882 5883 5883 5884 5884 5885 5885 5886 5886 5886 5886 5886 5886 5885 5885 5885 5884 5883 5882 5882 5881 5880 5879 5878 5877 5876 5876 5875 5875
5856 5858 5859 5860 5861 5862 5864 5866 5867 5868 5869 5870 5872 5873 5875 5876 5877 5878 5879 5880 5881 5882 5882 5883 5883 5884 5884 5885 5885 5885 5885 5885 5885 5884 5884 5884 5883 5882 5882 5881 5880 5879 5878 5877 5877 5876 5875 5875 5874
5855 5856 5857 5858 5859 5860 5862 5864 5864 5866 5867 5868 5870 5871 5873 5874 5875 5877 5877 5878 5879 5880 5881 5881 5882 5882 5883 5883 5884 5883 5883 5883 5883 5883 5883 5883 5882 5881 5881 5880 5879 5878 5878 5877 5876 5875 5875 5874 5874
5853 5855 5856 5857 5857 5858 5861 5862 5863 5864 5865 5866 5868 5870 5871 5872 5874 5875 5876 5876 5877 5878 5879 5880 5880 5881 5881 5882 5882 5882 5882 5882 5882 5882 5882 5881 5881 5880 5880 5879 5879 5878 5877 5876 5876 5875 5874 5874 5873
5852 5853 5854 5855 5855 5857 5858 5859 5860 5861 5863 5864 5866 5868 5869 5871 5872 5873 5874 5875 5875 5876 5877 5878 5879 5879 5880 5880 5880 5881 5881 5881 5881 5881 5880 5880 5880 5879 5879 5878 5878 5877 5876 5875 5875 5874 5873 5873 5872
5851 5851 5852 5853 5854 5855 5856 5857 5858 5859 5861 5862 5864 5865 5867 5868 5870 5871 5872 5873 5873 5874 5875 5876 5877 5878 5878 5879 5879 5879 5879 5879 5879 5879 5879 5879 5879 5878 5878 5877 5877 5876 5875 5874 5874 5873 5872 5872 5871
5849 5850 5851 5852 5853 5854 5855 5855 5857 5858 5859 5860 5862 5863 5864 5866 5867 5868 5869 5870 5871 5872 5873 5874 5875 5876 5876 5877 5877 5877 5877 5878 5878 5878 5878 5877 5877 5877 5877 5876 5876 5875 5874 5873 5873 5872 5871 5871 5870
5848 5849 5850 5851 5852 5852 5853 5854 5855 5856 5857 5858 5860 5861 5862 5863 5864 5866 5867 5868 5869 5870 5871 5872 5873 5874 5874 5875 5875 5875 5875 5876 5876 5876 5876 5876 5875 5875 5875 5875 5874 5874 5873 5872 5872 5871 5870 5870 5869
5847 5848 5849 5850 5850 5851 5852 5853 5854 5854 5855 5856 5857 5858 5860 5861 5862 5863 5864 5865 5866 5868 5869 5869 5870 5871 5872 5872 5873 5873 5873 5873 5874 5874 5874 5874 5873 5874 5873 5873 5873 5872 5872 5871 5870 5869 5869 5868 5867
5846 5847 5848 5848 5849 5850 5851 5851 5852 5852 5853 5854 5855 5856 5857 5858 5859 5860 5862 5863 5864 5865 5866 5867 5868 5868 5869 5870 5870 5870 5871 5871 5871 5872 5872 5872 5872 5872 5872 5871 5871 5871 5870 5869 5869 5868 5867 5867 5866
5845 5846 5846 5847 5847 5848 5849 5850 5851 5850 5851 5852 5853 5854 5854 5855 5856 5858 5859 5860 5861 5862 5863 5864 5865 5866 5867 5867 5868 5868 5868 5869 5869 5869 5869 5870 5870 5870 5870 5869 5869 5869 5868 5868 5867 5866 5866 5865 5864
5844 5845 5845 5845 5846 5847 5848 5849 5849 5849 5849 5850 5851 5851 5852 5853 5854 5855 5856 5857 5858 5859 5860 5861 5862 5863 5864 5865 5865 5865 5866 5866 5867 5867 5867 5867 5868 5867 5867 5867 5867 5867 5866 5866 5865 5864 5864 5863 5862
5843 5844 5844 5844 5844 5845 5846 5846 5847 5846 5847 5848 5848 5849 5850 5850 5851 5852 5853 5854 5856 5857 5858 5859 5859 5860 5861 5862 5862 5863 5863 5864 5864 5864 5865 5865 5865 5865 5865 5864 5864 5864 5864 5863 5863 5862 5861 5860 5860
5841 5842 5843 5843 5843 5844 5844 5844 5845 5845 5845 5846 5846 5846 5847 5848 5849 5850 5851 5851 5853 5854 5855 5856 5856 5857 5858 5859 5860 5860 5861 5861 5861 5862 5862 5862 5862 5862 5862 5862 5861 5861 5861 5860 5860 5859 5859 5858 5857
5840 5840 5841 5842 5842 5842 5842 5843 5843 5843 5843 5843 5844 5844 5844 5845 5846 5846 5848 5849 5850 5851 5852 5853 5854 5855 5855 5856 5857 5857 5858 5858 5859 5859 5859 5860 5859 5859 5859 5859 5859 5858 5858 5857 5857 5856 5856 5855 5854
5838 5839 5840 5840 5840 5840 5841 5841 5842 5841 5841 5841 5841 5841 5842 5842 5843 5844 5845 5846 5847 5847 5849 5849 5851 5852 5852 5853 5854 5854 5855 5855 5856 5856 5856 5856 5856 5856 5856 5856 5855 5855 5855 5854 5854 5853 5852 5851 5851
5837 5837 5837 5838 5838 5839 5839 5841 5839 5839 5839 5839 5839 5839 5840 5840 5841 5842 5842 5843 5843 5844 5845 5846 5847 5848 5849 5850 5851 5851 5852 5852 5853 5853 5853 5853 5853 5853 5853 5852 5852 5852 5851 5851 5850 5849 5848 5848 5847
5834 5834 5835 5836 5837 5837 5837 5840 5836 5837 5837 5837 5837 5837 5837 5838 5838 5839 5839 5840 5841 5841 5842 5843 5844 5845 5846 5847 5847 5848 5849 5849 5849 5850 5850 5850 5849 5849 5849 5849 5848 5848 5848 5847 5846 5846 5845 5844 5843